STARLINK-34420, 64483

Orbit data source: Space-Track

STARLINK-34420, 64483 is a payload satellite owned by SpaceX/Seattle (US) in LEO that was launched on Mon, 23 Jun 2025 UTC via an FALCON 9 launch vehicle from the Air Force Eastern Test Range (AFETR). Payload-class satellites include a variety of spacecraft equipped with specific instruments for various scientific and technological missions. These include communications satellites like Starlink; space stations such as the ISS; scientific satellites like the Hubble; Earth observation satellites from companies like Planet Labs, Umbra, and HawkEye 360; GPS; miniature CubeSats for education and research; and military/defense satellites.

Loading next visibility...
Identifier
64483, 2025-133M
Orbit
LEO
Last TLE update
14 hours ago
Origin
Manufacturer
SpaceX/Seattle
Mission
Operational spacecraft
Bus & Motor
STARLINK V2MO, Unknown motor
Mass
575 kg wet, ~530 kg dry
Launch date (UTC)
2025-06-23 (1 week ago)
Launch vehicle
FALCON 9
Launch site
Air Force Eastern Test Range (AFETR)
Object type
Payload
Rocket body
Debris
Shape & HBR
Unknown
Radar Cross Section
RCS unknown

Expand to show TLE details & history

TLE from 14 hours ago
0 STARLINK-34420
1 64483U 25133M   25182.16668981 -.01140062  00000-0 -47710-2 0  9999
2 64483  53.1558 217.9518 0000940  96.5959  92.7633 15.87565603  2494
Epoch: 2025-07-01T04:00Z
TLE epoch observation values (Epoch: 2025-07-01T04:00:01.999Z)
Latitude
-7.6141°
Longitude
64.19356°
Altitude
311.362 km
Speed
7.722 km/s
True Right ascension
02h 54m 40s
True Declination
-7° 33' 58"
Sunlit
Object was in daylight at epoch
Visualization orbit readout
Latitude
-52.60188°
Longitude
158.47574°
Altitude
332.061 km
Speed
7.709 km/s
Apparent Right ascension
14h 05m 57s
Apparent Declination
-66° 23' 10"
Sunlit
Object is in daylight
Visualization observer readout
Local Sidereal Time
05:38:15
Azimuth
149.715° SSE
Elevation
-50.579°
Doppler factor
1
Orbital elements
Apogee altitude
310.002 km
Perigee altitude
308.745 km
Semi-major axis
6,687.511 km
Eccentricity
0.00009
Inclination
53.1558°
RAAN
217.9518°
Arg. of periapsis
96.5959°
True anomaly
Unknown
Mean anomaly
92.7633°
Eccentric anomaly
Unknown
Mean motion
3.96868 °/min
Orbital period
90.71 mins
BSTAR
-0.004771
Loading maneuver chart data...
Loading SW <> Apogee altitude chart data...
Loading historical data...
Loading historical data...
Loading historical data...
Loading historical data...
Loading historical data...
Loading historical data...
Loading historical data...

STARLINK-34420 Visibility forecast

Observer location: undefined°, undefined°

Span
Click to sort rows by Start time (UTC) header in descending order
Start Az.
Max El. time (UTC)
Max El. Az.
Max El.
End time (UTC)
End Az.
4 mins2025-07-02 05:06:34.468Z234.585° WSW2025-07-02 05:08:34.468Z28.988° NE41.538°2025-07-02 05:10:34.468Z47.416° ENE
4 mins2025-07-02 11:27:34.468Z326.578° NNW2025-07-02 11:29:34.468Z72.686° E35.203°2025-07-02 11:31:34.468Z114.456° SE
|